www.pogodaiklimat.ru

Погода и климат >> Архив погоды >> Россия >> Саратовская область >> Аткарск


ПОГОДА в Аткарске

  • Прогноз погоды в Аткарске
  • Монитор погоды в Аткарске

АРХИВ ПОГОДЫ в Аткарске

Время (UTC), дата Ветер
(напр.,м/с)
 
Видим.   Явления Облачность Т
(С)
Тd
(С)
f
(%)
Тe
(С)
Тes
(С)
Комфортность P
(гПа)
Po
(гПа)
Тmin
(С)
Tmax
(С)
R
(мм)
R24
(мм)
S
(см)
03 10.09 С 1 10 км 3/0
[Ci fib]
+7.5 +5.7 88 +7 +7 1030.4 1005.2 +7.5
06 10.09 СВ 1 20 км ясно +19.1 +7.2 46 +21 +27 комфорт 1029.6 1005.4
09 10.09 С 2 20 км ясно +22.6 +6.6 36 +23 +33 комфорт 1028.9 1005.1
12 10.09 СВ 3 20 км 3/3 600 м
[]
+24.3 +6.2 31 +24 +27 комфорт 1027.9 1004.2
15 10.09 С 2 20 км 3/0
[Ac trans]
+20.6 +8.8 47 +23 +23 комфорт 1028.3 1004.3 +24.4
18 10.09 СВ 2 10 км ясно +15.8 +8.9 64 +16 +16 1029.4 1005.0
21 10.09 СВ 2 10 км ясно +13.1 +8.7 75 +12 +12 1030.3 1005.6
00 11.09 С 2 10 км ясно +10.9 +9.3 90 +10 +10 1031.4 1006.5
03 11.09 С 1 10 км 3/0
[Ci fib]
+9.6 +9.1 97 +9 +9 1032.3 1007.3 +8.7
06 11.09 В 1 10 км 3/0
[Ci fib]
+19.1 +10.6 58 +21 +27 комфорт 1032.0 1007.8
09 11.09 СВ 2 20 км 6/6 600 м
[Cu hum]
+21.3 +9.9 48 +23 +27 комфорт 1031.6 1007.6
12 11.09 СВ 4 20 км 3/3 600 м
[Cu hum]
+23.5 +7.5 36 +24 +26 комфорт 1030.5 1006.7
15 11.09 СВ 2 20 км ясно +20.2 +8.7 48 +22 +22 комфорт 1030.2 1006.1 +23.9
18 11.09 ЮВ 2 10 км ясно +15.8 +6.2 53 +16 +16 1031.2 1006.7
21 11.09 В 2 10 км ясно +13.0 +6.1 63 +12 +12 1031.4 1006.7
00 12.09 СВ 1 10 км ясно +9.5 +5.8 78 +9 +9 1031.7 1006.7
03 12.09 СВ 2 10 км ясно +8.2 +5.8 85 +6 +6 1032.1 1007.0 +7.2
06 12.09 С 1 20 км ясно +18.3 +7.7 50 +20 +25 1031.5 1007.2
09 12.09 В 2 20 км ясно +22.5 +6.1 35 +23 +33 комфорт 1030.5 1006.4
12 12.09 Ю 1 20 км ясно +24.3 +4.1 27 +24 +29 комфорт 1028.1 1004.4
15 12.09 штиль 0 20 км ясно +21.0 +8.2 44 +22 +22 комфорт 1027.6 1003.7 +24.5
18 12.09 ЮВ 2 10 км ясно +18.2 +4.3 40 +19 +19 1028.0 1003.8
21 12.09 Ю 1 10 км ясно +13.2 +5.5 60 +14 +14 1027.7 1003.1
00 13.09 ЮВ 2 10 км ясно +8.1 +4.2 76 +6 +6 1027.7 1002.7
03 13.09 СВ 1 10 км ясно +6.8 +3.9 82 +6 +6 1027.6 1002.4 +6.7
06 13.09 СЗ 1 20 км ясно +19.6 +7.7 46 +22 +27 комфорт 1026.4 1002.4 +6.7
09 13.09 СВ 1 20 км ясно +23.7 +3.8 27 +23 +34 комфорт 1024.8 1001.1
12 13.09 ЮЗ 3 20 км 3/3 600 м
[Cu hum]
+24.8 +3.5 25 +24 +27 комфорт 1022.9 999.4
15 13.09 ЮЗ 1 20 км ясно +22.4 +4.2 30 +22 +22 комфорт 1021.6 997.9 +25.3
18 13.09 Ю 2 10 км ясно +17.3 +5.1 44 +18 +18 1021.7 997.6
21 13.09 Ю 2 10 км ясно +13.7 +5.1 56 +13 +13 1020.9 996.5
00 14.09 Ю 2 10 км ясно +10.9 +4.9 66 +10 +10 1020.0 995.4
03 14.09 Ю 3 10 км ясно +10.2 +4.4 67 +8 +8 1019.4 994.7 +10.0
06 14.09 ЮЗ 3 20 км ясно +18.5 +7.1 47 +19 +23 1017.7 993.8
09 14.09 З 5-11
{11}
20 км 3/3 1000 м
[Cu hum Ac trans]
+25.4 +3.4 24 +24 +28 комфорт 1015.5 992.1
12 14.09 ЮЗ 6-11
{11}
20 км 8/4 600 м
[Sc diur, vesp Ac trans Ci fib]
+25.4 +2.6 23 +24 +25 комфорт 1013.8 990.5
15 14.09 Ю 3
{11}
20 км 10/4 600 м
[Sc diur, vesp Ac As Ci sp]
+22.9 +4.0 29 +23 +23 комфорт 1012.7 989.2 +25.8
18 14.09 СЗ 6-10
{11}
10 км 10/0
[Ac und]
+16.7 +11.9 73 +16 +16 1014.2 990.2
21 14.09 СЗ 3
{10}
10 км слаб. дождь 10/0
[As op]
+12.7 +11.9 95 +11 +11 1015.8 991.4
00 15.09 З 1 10 км в посл. час дождь 10/0
[As op]
+11.6 +11.6 100 +11 +11 1015.3 990.9
03 15.09 З 1 10 км {дождь} 8/0
[As trans]
+10.7 +10.7 100 +10 +10 1015.7 991.2 +10.3 2
06 15.09 З 3 10 км {дождь} 3/0
[Ac trans]
+13.5 +10.5 82 +12 +15 1016.3 992.0
09 15.09 З 3 10 км 10/6 600 м
[Sc Ac trans]
+14.9 +6.0 55 +14 +15 1015.8 991.6
12 15.09 СЗ 7-12
{13}
20 км 9/6 600 м
[Cu med, cong Ac trans]
+12.6 +5.6 62 +10 +10 1015.7 991.4
15 15.09 З 1
{12}
10 км в посл. час гроза {ливн. осадки} 6/4 600 м
[Sc diur, vesp Ac cuf]
+9.3 +7.6 89 +9 +9 1016.0 991.3 +16.5 1
18 15.09 Ю 2 10 км {гроза, ливн. осадки} 4/0
[Ac trans]
+8.2 +6.7 90 +6 +6 1016.5 991.3
21 15.09 ЮЗ 2 10 км ясно +7.0 +5.5 90 +5 +5 1015.3 990.5
00 16.09 Ю 2 10 км 4/0
[Ci fib]
+5.5 +5.1 97 +3 +3 1014.3 989.3
03 16.09 Ю 4 10 км 10/0
[Ac und]
+6.7 +5.1 90 +3 +3 1012.0 987.2 +5.5
06 16.09 ЮЗ 5 10 км 10/0
[Ac und]
+12.3 +5.8 64 +10 +11 1009.6 985.3
09 16.09 ЮЗ 9-15
{15}
20 км 6/0
[Ac trans]
+18.4 +4.2 39 +18 +18 1006.2 982.5
12 16.09 З 8-13
{17}
20 км 10/0
[Ac und]
+20.2 +2.4 31 +20 +20 1004.8 980.9
15 16.09 СЗ 4
{13}
20 км 10/0
[Ac und]
+18.1 +4.1 39 +18 +18 1003.8 980.2 +20.4
18 16.09 З 3 10 км 8/0
[Ac trans]
+15.8 +6.8 55 +15 +15 1004.7 980.9
21 16.09 З 2 10 км 8/0
[Ac trans]
+13.1 +6.9 66 +13 +13 1004.5 980.5
00 17.09 ЮЗ 2 10 км 3/0
[Ac trans]
+10.5 +6.2 75 +9 +9 1004.6 980.3

 

Местоположение метеостанции Аткарск (Саратовская область, Россия): широта 51.87 долгота 45.03 высота над уровнем моря 208 м.

В архиве по умолчанию представлена погода в Аткарске за последнюю неделю. Архивные данные за месяц целиком и за предыдущие месяцы, начиная с января 2011 года, Вы можете получить, выбрав интересующий диапазон дат из раскрывающегося списка и нажав кнопку "Ввод!".


*Определитесь, кто Вы:
робот инопланетянин человек

Внимание! Время в таблицах - всемирное. Для получения местного времени необходимо прибавить поправку, которая равна 4 ч.

Смотрите также архив погоды в соседних городах и на ближайших метеорологических станциях:

Погода в Октябрьском Городке (Саратовская область, Россия) (39 км)
Погода в Петровске (Саратовская область, Россия) (52 км)
Погода в Калининске (Саратовская область, Россия) (57 км)
Погода в Саратове ЮВ (Саратовская область, Россия) (75 км)
Погода в Саратове (Саратовская область, Россия) (77 км)
Погода в Сплавнухе (Саратовская область, Россия) (92 км)
Погода в Колышлее (Пензенская область, Россия) (93 км)
Погода в Ртищево (Саратовская область, Россия) (95 км)
Погода в Росташах (Саратовская область, Россия) (100 км)
Погода в Карабулаке (Саратовская область, Россия) (105 км)

Пояснения к столбцам:

Ветер - указаны скорость ветра в м/с - средняя за 10 мин, порывы в срок и между сроками (в фигурных скобках) и направление, откуда дует ветер: С - северный, СВ - северо-восточный, В - восточный, ЮВ - юго-восточный, Ю - южный, ЮЗ - юго-западный, З - западный, СЗ - северо-западный.
Видимость - горизонтальная дальность видимости в метрах или километрах. При видимости от 1 до 10 км при отсутствии осадков обычно наблюдается дымка, при ухудшении видимости до 1 км и менее - туман. В сухую погоду видимость может ухудшаться дымом, пылью или мглою.
Явления - указаны атмосферные явления, наблюдавшиеся в срок или в последний час перед сроком; фигурными скобками обозначены явления, наблюдавшиеся между сроками (за 1-3 часа до срока); квадратными скобками обозначены град или гололедные отложения с указанием их диаметра в мм.
Облачность - указаны через наклонную черту общая и нижняя облачность в баллах и высота нижней границы облаков в метрах; квадратными скобками обозначены формы облаков: Ci - перистые, Cs - перисто-слоистые, Cc - перисто-кучевые, Ac - высококучевые, As - высокослоистые, Sc - слоисто-кучевые, Ns - слоисто-дождевые, Cu - кучевые, Cb - кучево-дождевые. Подробнее классификацию облаков см. в Атласе облаков (PDF).
T - Температура воздуха - температура, измеренная на высоте 2 м над землей.
Td - Температура точки росы - температура, при понижении до которой содержащийся в воздухе водяной пар достигнет насыщения.
f - Относительная влажность воздуха - влажноcть воздуха, измеренная на высоте 2 м над землей.
Te - Эффективная температура - температура, которую ощущает одетый по сезону человек в тени. Характеристика душности погоды. При расчете учитывается влияние влажности воздуха и скорости ветра на теплоощущения человека.
Tes - Эффективная температура на солнце - температура, которую ощущает человек, с поправкой на солнечный нагрев. Характеристика знойности погоды. Зависит от высоты солнца над горизонтом, облачности и скорости ветра. Ночью, в пасмурную погоду, а также при ветре 12 м/с и более поправка равна нулю.
P - Атмосферное давление - приведенное к уровню моря атмосферное давление.
Po - Атмосферное давление - измеренное на уровне метеостанции атмосферное давление.
Tmin - Минимальная температура - минимум температуры воздуха на высоте 2 м над землей.
Tmax - Максимальная температура - максимум температуры воздуха на высоте 2 м над землей.
R - Количество осадков - Количество выпавших осадков за период времени, мм. При наведении курсора мыши на число - период времени, за который выпало указанное количество осадков.
R24 - Количество осадков - Количество выпавших осадков за 24 часа, мм.
S - Снежный покров - Высота снежного покрова, см. При наведении курсора мыши на число - состояние снежного покрова и степень покрытия местности в баллах.